[[{"header":{"parameterUnit":"m.s-1","parameterCategory":1,"la1":30.2991,"la2":30.254,"lo1":-89.0895,"lo2":-89.0444,"dy":0.0017,"dx":0.0017,"nx":28,"ny":28,"refTime":"2024-05-21T09:00:00:Z","depth":0,"parameterNumber":2,"parameterNumberName":"U-component_of_WINDS"},"data":[0,0,0,0,0,0,0,0,0,0,0,0,0,0,0,0,0,0,0,0,0,0,0,0,0,0,0,0,0,0,0,0,0,0,0,0,0,0,0,0,0,0,0,0,0,0,0,0,0,0,0,0,0,0,0,0,0,0,-1.0638,-1.0638,0,-1.0617,-1.0617,-1.0616,-1.0582,-1.0581,-1.0581,-1.058,-1.056,-1.056,-1.0561,0,0,0,0,0,0,0,0,0,0,0,0,0,-1.0652,-1.0652,-1.0638,-1.0638,-1.0638,-1.0617,-1.0617,-1.0616,-1.0582,-1.0581,-1.058,-1.058,-1.056,-1.056,-1.0561,0,0,0,0,0,0,0,0,0,0,0,0,0,-1.064,-1.0652,-1.0638,-1.0618,-1.0616,-1.0617,-1.0616,-1.0616,-1.0582,-1.0581,-1.058,-1.0579,-1.056,-1.056,-1.0561,-1.058,0,0,-1.0561,-1.0561,0,0,0,0,0,0,0,0,-1.0641,-1.064,-1.0621,-1.0619,-1.0617,-1.0601,-1.0614,-1.0604,-1.0582,-1.0595,-1.058,-1.0579,-1.0575,-1.0574,-1.0572,-1.0579,-1.0578,-1.0561,-1.0561,-1.0561,-1.0561,0,0,0,0,0,0,0,-1.0642,-1.064,-1.063,-1.0621,-1.0619,-1.0611,-1.0608,-1.0612,-1.0591,-1.0594,-1.0591,-1.0589,-1.0574,-1.0572,-1.0571,-1.0578,-1.0561,-1.0561,-1.0561,-1.0561,-1.0602,-1.0602,0,0,0,0,0,0,-1.0645,-1.0641,-1.063,-1.0629,-1.0627,-1.0611,-1.0608,-1.0607,-1.059,-1.0587,-1.059,-1.0588,-1.0572,-1.0571,-1.057,-1.0592,-1.0561,-1.0561,-1.0561,-1.0601,-1.0602,-1.0603,0,0,0,0,0,0,-1.0646,-1.0645,-1.0631,-1.0635,-1.0632,-1.0612,-1.0611,-1.0607,-1.0605,-1.0587,-1.0584,-1.0592,-1.0571,-1.057,-1.0578,-1.0591,-1.0561,-1.0561,-1.0599,-1.0601,-1.0602,-1.0637,0,0,0,0,0,0,-1.0646,-1.0645,-1.0651,-1.0635,-1.0632,-1.0639,-1.0612,-1.0607,-1.0605,-1.0602,-1.0588,-1.0585,-1.057,-1.0578,-1.0578,-1.0591,-1.0561,-1.0598,-1.06,-1.0602,-1.0635,-1.064,-1.0644,0,0,0,0,0,-1.0647,-1.0663,-1.0652,-1.0651,-1.064,-1.0639,-1.0638,-1.062,-1.0607,-1.0614,-1.0602,-1.0586,-1.059,-1.0579,-1.0579,-1.0592,-1.0597,-1.0599,-1.0602,-1.0633,-1.0639,-1.0644,0,0,0,0,0,0,-1.0682,-1.066,-1.0648,-1.0659,-1.0651,-1.0634,-1.0642,-1.0627,-1.0624,-1.0621,-1.06,-1.0597,-1.0608,-1.0601,-1.0589,-1.0611,-1.0591,-1.0593,-1.0615,-1.062,-1.0625,-1.0626,-1.0561,0,0,0,0,0,-1.0691,-1.0692,-1.0673,-1.0684,-1.0681,-1.0662,-1.0661,-1.0648,-1.064,-1.0637,-1.0626,-1.0619,-1.0619,-1.0619,-1.0618,-1.0634,-1.063,-1.0643,-1.0647,-1.0651,-1.0653,-1.0662,-1.0667,-1.061,-1.061,-1.061,0,0,-1.0709,-1.0698,-1.0699,-1.0691,-1.0683,-1.0685,-1.066,-1.0663,-1.0664,-1.0637,-1.0644,-1.0636,-1.0627,-1.0639,-1.0644,-1.0633,-1.0668,-1.0654,-1.0657,-1.0657,-1.0664,-1.067,-1.0675,-1.0612,-1.0612,-1.0611,0,0,-1.0744,-1.0735,-1.0744,-1.0737,-1.0726,-1.0713,-1.0715,-1.07,-1.0693,-1.07,-1.0679,-1.0682,-1.0682,-1.0676,-1.0673,-1.0707,-1.0692,-1.0707,-1.0731,-1.074,-1.0744,-1.0748,-1.076,-1.0765,-1.071,-1.071,-1.071,0,-1.0769,-1.077,-1.075,-1.0755,-1.0752,-1.0727,-1.0736,-1.073,-1.072,-1.0719,-1.0707,-1.0707,-1.0699,-1.071,-1.0718,-1.0717,-1.0719,-1.0709,-1.0745,-1.0749,-1.0752,-1.0763,-1.0768,-1.0712,-1.0712,-1.0711,-1.0711,0,-1.0802,-1.0803,-1.0811,-1.0801,-1.0799,-1.0806,-1.0788,-1.0788,-1.0776,-1.0765,-1.0772,-1.0762,-1.0758,-1.076,-1.0748,-1.0769,-1.0763,-1.0749,-1.0729,-1.076,-1.077,-1.0774,-1.0715,-1.0714,-1.0713,-1.0713,0,0,-1.0858,-1.0836,-1.084,-1.0835,-1.0821,-1.0822,-1.0828,-1.0824,-1.0826,-1.0819,-1.0824,-1.0825,-1.0812,-1.0809,-1.0796,-1.0803,-1.0831,-1.0788,-1.0788,-1.0797,-1.0854,-1.0865,-1.0871,-1.0821,-1.0822,-1.0822,-1.0855,0,-1.089,-1.0898,-1.088,-1.0893,-1.0895,-1.0871,-1.0877,-1.0869,-1.086,-1.086,-1.085,-1.0851,-1.0833,-1.0831,-1.0837,-1.0826,-1.0842,-1.0824,-1.0826,-1.0827,-1.0829,-1.0876,-1.0888,-1.0919,-1.0859,-1.086,-1.086,0,-1.0929,-1.0924,-1.0937,-1.0922,-1.0922,-1.0927,-1.0922,-1.0923,-1.0914,-1.0907,-1.0904,-1.0888,-1.0894,-1.0875,-1.0883,-1.0871,-1.0871,-1.0866,-1.0867,-1.0867,-1.0845,-1.0877,-1.0929,-1.0934,-1.0867,-1.0866,-1.0866,0,-1.0969,-1.0965,-1.0973,-1.0969,-1.0953,-1.0957,-1.095,-1.0941,-1.094,-1.0936,-1.0935,-1.0932,-1.0931,-1.0929,-1.0914,-1.0901,-1.0924,-1.0904,-1.0919,-1.0919,-1.0925,-1.0925,-1.0977,-1.0925,-1.0925,-1.0925,-1.0925,0,-1.1007,-1.1016,-1.099,-1.0995,-1.1005,-1.0985,-1.0995,-1.0986,-1.0978,-1.0981,-1.0961,-1.0965,-1.0944,-1.0946,-1.0934,-1.0943,-1.0942,-1.0937,-1.0934,-1.0939,-1.094,-1.0939,-1.0936,-1.0926,-1.0926,-1.0925,-1.0925,0,-1.1053,-1.1036,-1.1043,-1.1027,-1.1023,-1.1031,-1.1017,-1.1021,-1.101,-1.1014,-1.1014,-1.0997,-1.0998,-1.0983,-1.0981,-1.0973,-1.0987,-1.098,-1.099,-1.0988,-1.1004,-1.1003,-1.1058,-1.1064,-1.1007,-1.1008,-1.1009,0,-1.1078,-1.1084,-1.1069,-1.1069,-1.1063,-1.1064,-1.1062,-1.1043,-1.1043,-1.1034,-1.1039,-1.1038,-1.1037,-1.1039,-1.1027,-1.1026,-1.1019,-1.1038,-1.1018,-1.1023,-1.1019,-1.1019,-1.102,-1.1042,-1.1043,-1.1044,-1.1044,0,-1.1125,-1.1117,-1.1115,-1.111,-1.1109,-1.1105,-1.1099,-1.1101,-1.108,-1.1081,-1.1081,-1.108,-1.1078,-1.1077,-1.1074,-1.1068,-1.1053,-1.105,-1.1054,-1.1059,-1.1065,-1.1062,-1.1001,-1.1049,-1.1049,-1.1048,-1.1048,-1.1048,-1.1162,-1.1166,-1.1156,-1.1155,-1.1149,-1.1144,-1.1147,-1.1136,-1.1136,-1.1132,-1.1121,-1.1123,-1.1115,-1.1109,-1.1104,-1.1106,-1.1097,-1.1102,-1.1103,-1.1105,-1.1108,-1.1064,-1.1106,-1.1106,-1.1105,-1.1105,-1.1105,0,-1.1208,-1.12,-1.1199,-1.1192,-1.1191,-1.1176,-1.117,-1.1171,-1.1172,-1.1166,-1.1164,-1.1165,-1.1165,-1.1153,-1.1151,-1.1155,-1.1148,-1.1155,-1.1155,-1.1154,-1.1116,-1.1114,-1.1161,-1.1161,-1.1161,-1.1161,-1.1161,-1.1161,-1.1232,-1.1239,-1.1229,-1.1233,-1.1226,-1.1227,-1.1224,-1.1221,-1.1215,-1.1216,-1.1216,-1.1208,-1.1199,-1.1197,-1.1196,-1.1193,-1.1193,-1.1203,-1.1197,-1.1162,-1.1157,-1.1151,-1.1149,-1.1203,-1.1203,-1.1234,-1.1235,-1.1235]},{"header":{"parameterUnit":"m.s-1","parameterCategory":1,"la1":30.2991,"la2":30.254,"lo1":-89.0895,"lo2":-89.0444,"dy":0.0017,"dx":0.0017,"nx":28,"ny":28,"refTime":"2024-05-21T09:00:00:Z","depth":0,"parameterNumber":3,"parameterNumberName":"V-component_of_WINDS"},"data":[0,0,0,0,0,0,0,0,0,0,0,0,0,0,0,0,0,0,0,0,0,0,0,0,0,0,0,0,0,0,0,0,0,0,0,0,0,0,0,0,0,0,0,0,0,0,0,0,0,0,0,0,0,0,0,0,0,0,1.9771,1.977,0,1.969,1.9689,1.9688,1.9629,1.9628,1.9628,1.9627,1.9541,1.954,1.9538,0,0,0,0,0,0,0,0,0,0,0,0,0,1.9873,1.9871,1.9771,1.977,1.9769,1.969,1.9689,1.9688,1.9629,1.9628,1.9628,1.9627,1.9542,1.954,1.9538,0,0,0,0,0,0,0,0,0,0,0,0,0,1.9814,1.9871,1.9772,1.973,1.9726,1.969,1.9689,1.9687,1.9629,1.9628,1.9628,1.9627,1.9543,1.954,1.9537,1.9535,0,0,1.9529,1.9528,0,0,0,0,0,0,0,0,1.9817,1.981,1.9737,1.9733,1.9728,1.9669,1.9693,1.9636,1.9629,1.9666,1.9627,1.9626,1.9584,1.9578,1.9564,1.9531,1.9527,1.9529,1.9527,1.9526,1.9525,0,0,0,0,0,0,0,1.9821,1.9813,1.9739,1.9736,1.9731,1.9715,1.9706,1.9682,1.963,1.9662,1.9658,1.9649,1.9581,1.9567,1.9562,1.9526,1.9529,1.9526,1.9525,1.9524,1.9486,1.9486,0,0,0,0,0,0,1.9832,1.9817,1.9742,1.9737,1.9772,1.9714,1.9704,1.9689,1.963,1.9621,1.965,1.9647,1.9572,1.9565,1.9559,1.9551,1.9526,1.9523,1.9522,1.9485,1.9486,1.9487,0,0,0,0,0,0,1.9835,1.9826,1.9745,1.9776,1.9764,1.9713,1.9696,1.9687,1.9673,1.9621,1.9611,1.9645,1.9571,1.9562,1.9541,1.9547,1.9522,1.952,1.9484,1.9485,1.9486,1.9537,0,0,0,0,0,0,1.9838,1.9827,1.9827,1.9776,1.9763,1.973,1.9697,1.9686,1.9669,1.9664,1.9613,1.9604,1.957,1.9546,1.9539,1.9543,1.9517,1.9483,1.9485,1.9486,1.9535,1.954,1.9544,0,0,0,0,0,1.9842,1.9844,1.9827,1.9818,1.9761,1.9731,1.9723,1.9684,1.9669,1.9668,1.9634,1.9606,1.9548,1.9544,1.9535,1.9539,1.9483,1.9484,1.9486,1.9533,1.9539,1.9544,0,0,0,0,0,0,1.9896,1.9837,1.9817,1.9803,1.9773,1.9721,1.9717,1.9692,1.9664,1.966,1.9612,1.9601,1.9585,1.956,1.9557,1.9533,1.9512,1.9512,1.955,1.9556,1.956,1.9566,1.9515,0,0,0,0,0,1.9907,1.9888,1.9837,1.9829,1.9815,1.9769,1.9754,1.9727,1.9693,1.9679,1.9644,1.9611,1.9585,1.9569,1.9543,1.9531,1.9518,1.9529,1.9534,1.9538,1.9538,1.9529,1.9533,1.9491,1.9491,1.9491,0,0,1.9928,1.9893,1.9884,1.9839,1.9812,1.9793,1.9758,1.9739,1.9724,1.9676,1.9654,1.9627,1.9587,1.957,1.9561,1.9549,1.9547,1.954,1.9544,1.9541,1.9531,1.9535,1.9538,1.9492,1.9492,1.9492,0,0,1.9956,1.9929,1.9919,1.9893,1.9853,1.9822,1.982,1.9772,1.9752,1.9729,1.9693,1.9673,1.963,1.9603,1.9583,1.9601,1.9574,1.9594,1.9618,1.961,1.9613,1.9616,1.9621,1.9624,1.9594,1.9595,1.9595,0,1.9988,1.9958,1.9917,1.99,1.9881,1.9838,1.9827,1.9803,1.9756,1.9743,1.973,1.9675,1.9645,1.9621,1.9625,1.9611,1.9606,1.9599,1.9616,1.9618,1.962,1.9624,1.9627,1.9597,1.9597,1.9597,1.9596,0,1.9998,1.9977,1.9974,1.993,1.9911,1.9897,1.9854,1.9839,1.9813,1.9784,1.976,1.9723,1.9688,1.968,1.9655,1.9652,1.9645,1.9625,1.9602,1.9627,1.9631,1.9632,1.9601,1.96,1.9599,1.9599,0,0,2.0058,1.9992,1.9991,1.9971,1.9923,1.9906,1.9889,1.9856,1.9843,1.9812,1.9796,1.9761,1.9741,1.9719,1.969,1.9683,1.9698,1.9663,1.9661,1.967,1.9692,1.9707,1.971,1.968,1.9681,1.9681,1.9695,0,2.0078,2.0048,2.0011,1.9992,1.9972,1.9931,1.9916,1.9885,1.9857,1.9835,1.9803,1.9778,1.9755,1.9742,1.9733,1.9699,1.9702,1.9697,1.9664,1.9663,1.9675,1.9712,1.9727,1.9743,1.9696,1.9696,1.9696,0,2.0098,2.007,2.005,2.0003,1.9993,1.9981,1.9946,1.9927,1.9889,1.9869,1.9845,1.9814,1.9793,1.9774,1.9744,1.9742,1.9726,1.9708,1.9707,1.9702,1.9681,1.9706,1.9747,1.9749,1.9698,1.9698,1.9698,0,2.0143,2.01,2.0082,2.0065,2.001,2.0003,1.9979,1.9942,1.9923,1.9893,1.988,1.9848,1.983,1.9805,1.9766,1.9755,1.974,1.9718,1.9722,1.9723,1.972,1.972,1.9757,1.9712,1.9712,1.9711,1.9711,0,2.0169,2.0159,2.0101,2.009,2.0076,2.0033,2.002,1.9993,1.996,1.9942,1.9903,1.9887,1.9837,1.9814,1.9783,1.9763,1.9755,1.9737,1.9729,1.974,1.9743,1.9729,1.9726,1.9712,1.9712,1.9712,1.9712,0,2.0217,2.0178,2.0156,2.0106,2.0093,2.0085,2.0041,2.0028,1.9998,1.9976,1.9968,1.992,1.9891,1.985,1.9809,1.9788,1.9772,1.9759,1.9784,1.9779,1.9786,1.9785,1.9814,1.9815,1.977,1.9771,1.9771,0,2.0236,2.0227,2.0176,2.0161,2.0139,2.0117,2.0098,2.0055,2.0037,1.9993,1.9985,1.9954,1.9926,1.9883,1.9843,1.9811,1.9797,1.9809,1.9792,1.9803,1.9796,1.9797,1.9795,1.9813,1.9814,1.9815,1.9815,0,2.0274,2.0255,2.023,2.0198,2.0177,2.0149,2.012,2.011,2.006,2.0042,2.0012,1.9991,1.9949,1.9918,1.988,1.9855,1.9826,1.9821,1.982,1.9831,1.9846,1.9837,1.9795,1.982,1.982,1.9819,1.9819,1.9819,2.0307,2.0296,2.0258,2.0231,2.0205,2.0178,2.0163,2.0131,2.0106,2.0069,2.0045,2.0017,1.9978,1.9925,1.9901,1.9878,1.9866,1.9865,1.9864,1.9865,1.9868,1.985,1.9871,1.9871,1.987,1.987,1.987,0,2.0341,2.0315,2.0291,2.0251,2.023,2.0205,2.0171,2.0155,2.0131,2.0098,2.0072,2.0037,2.0007,1.9965,1.9931,1.992,1.9906,1.9913,1.9913,1.9907,1.9881,1.9885,1.9925,1.9925,1.9925,1.9925,1.9925,1.9925,2.0357,2.0337,2.0314,2.0281,2.0254,2.0226,2.0209,2.0183,2.0157,2.0121,2.0095,2.0069,2.0032,1.9995,1.9966,1.9954,1.9943,1.9953,1.9938,1.9914,1.9909,1.9904,1.9908,1.9952,1.9952,1.9965,1.9966,1.9966]}]]